Monroe, WI

10:42 PM CST on February 18, 2018 (GMT -0600)
Monroe Municipal

Weather History for KEFT - February, 2012

Change the Weather History Date:

Friday, February 17, 2012

  Actual Average Record
Temperature  
Mean Temperature 35 °F -  
Max Temperature 44 °F 0 °F 60 °F (2017)
Min Temperature 26 °F - -2 °F (2001)
Degree Days  
Heating Degree Days 30    
Moisture  
Dew Point 27 °F    
Average Humidity 74    
Maximum Humidity 100    
Minimum Humidity 57    
Precipitation  
Precipitation 0.00 in - - ()
Sea Level Pressure  
Sea Level Pressure 30.04 in    
Wind  
Wind Speed 11 mph (SW)    
Max Wind Speed 21 mph    
Max Gust Speed 26 mph    
Visibility 10 miles    
Events      
Averages and records for this station are not official NWS values.
T = Trace of Precipitation, MM = Missing Value Source: NWS Daily Summary

Daily Weather History Graph

Daily Weather History Graph

Search for Another Location

Airport or City:

Trip Planner

Search our weather history database for the weather conditions in past years. The results will help you decide how hot, cold, wet, or windy it might be!

Date:

Astronomy

Feb. 17, 2012 Rise Set
Actual Time 6:53 AM CST 5:32 PM CST
Civil Twilight 6:24 AM CST 6:01 PM CST
Nautical Twilight 5:51 AM CST 6:34 PM CST
Astronomical Twilight 5:18 AM CST 7:06 PM CST
Moon 3:48 AM CST (2/17) 1:21 PM CST (2/17)
Length of Visible Light 11h 36m
Length of Day
10h 39m
Waning Crescent, 19% of the Moon is Illuminated
Feb 17
Waning Crescent
Feb 21
New
Feb 29
First Quarter
Mar 8
Full
Mar 14
Last Quarter

Hourly Weather History & Observations

Time (CST) Temp. Windchill Dew Point Humidity Pressure Visibility Wind Dir Wind Speed Gust Speed Precip Events Conditions
12:15 AM 30.2 °F 21.3 °F 23.0 °F 75% 30.10 in 10.0 mi West 10.4 mph - N/A   Clear
12:35 AM 30.2 °F 21.9 °F 23.0 °F 75% 30.10 in 10.0 mi WSW 9.2 mph - N/A   Clear
12:55 AM 30.2 °F 21.9 °F 23.0 °F 75% 30.10 in 10.0 mi WSW 9.2 mph - N/A   Clear
1:15 AM 30.2 °F 21.3 °F 23.0 °F 75% 30.10 in 10.0 mi WSW 10.4 mph - N/A   Clear
1:35 AM 30.2 °F 21.3 °F 23.0 °F 75% 30.11 in 10.0 mi WSW 10.4 mph - N/A   Clear
1:55 AM 30.2 °F 21.3 °F 23.0 °F 75% 30.11 in 10.0 mi WSW 10.4 mph - N/A   Clear
2:15 AM 30.2 °F 21.9 °F 23.0 °F 75% 30.11 in 10.0 mi WSW 9.2 mph - N/A   Clear
2:35 AM 28.4 °F 19.7 °F 23.0 °F 80% 30.10 in 10.0 mi WSW 9.2 mph - N/A   Clear
2:55 AM 28.4 °F 19.1 °F 23.0 °F 80% 30.10 in 10.0 mi WSW 10.4 mph - N/A   Clear
3:15 AM 28.4 °F 19.7 °F 23.0 °F 80% 30.10 in 10.0 mi WSW 9.2 mph - N/A   Clear
3:35 AM 28.4 °F 19.1 °F 23.0 °F 80% 30.10 in 10.0 mi WSW 10.4 mph - N/A   Clear
3:55 AM 28.4 °F 19.7 °F 23.0 °F 80% 30.10 in 10.0 mi SW 9.2 mph - N/A   Clear
4:15 AM 26.6 °F 19.1 °F 24.8 °F 93% 30.10 in 10.0 mi SSW 6.9 mph - N/A   Clear
4:35 AM 26.6 °F 21.2 °F 24.8 °F 93% 30.09 in 10.0 mi SW 4.6 mph - N/A   Clear
4:55 AM 26.6 °F 21.2 °F 26.6 °F 100% 30.08 in 10.0 mi SW 4.6 mph - N/A   Clear
5:15 AM 26.6 °F 20.0 °F 24.8 °F 93% 30.08 in 10.0 mi SW 5.8 mph - N/A   Clear
5:35 AM 26.6 °F 18.2 °F 24.8 °F 93% 30.08 in 10.0 mi SSW 8.1 mph - N/A   Clear
5:55 AM 26.6 °F 18.2 °F 24.8 °F 93% 30.08 in 10.0 mi SSW 8.1 mph - N/A   Scattered Clouds
6:15 AM 26.6 °F 18.2 °F 24.8 °F 93% 30.08 in 10.0 mi SSW 8.1 mph - N/A   Overcast
6:35 AM 28.4 °F 20.4 °F 26.6 °F 93% 30.08 in 10.0 mi SSW 8.1 mph - N/A   Overcast
7:35 AM 28.4 °F 23.3 °F 24.8 °F 86% 30.07 in 10.0 mi South 4.6 mph - N/A   Overcast
7:55 AM 28.4 °F 24.6 °F 24.8 °F 86% 30.07 in 10.0 mi SSE 3.5 mph - N/A   Overcast
8:15 AM 30.2 °F 24.3 °F 24.8 °F 80% 30.08 in 10.0 mi South 5.8 mph - N/A   Overcast
8:35 AM 30.2 °F 22.6 °F 26.6 °F 86% 30.08 in 10.0 mi South 8.1 mph - N/A   Overcast
8:55 AM 32.0 °F 24.8 °F 26.6 °F 80% 30.08 in 10.0 mi South 8.1 mph - N/A   Overcast
9:15 AM 32.0 °F 24.2 °F 26.6 °F 80% 30.07 in 10.0 mi South 9.2 mph - N/A   Overcast
9:35 AM 32.0 °F 24.8 °F 26.6 °F 80% 30.07 in 10.0 mi South 8.1 mph - N/A   Overcast
9:55 AM 33.8 °F 25.8 °F 26.6 °F 75% 30.06 in 10.0 mi SSE 10.4 mph - N/A   Overcast
10:15 AM 33.8 °F 26.4 °F 26.6 °F 75% 30.05 in 10.0 mi SSE 9.2 mph - N/A   Overcast
10:35 AM 33.8 °F 25.3 °F 26.6 °F 75% 30.04 in 10.0 mi SSE 11.5 mph - N/A   Overcast
10:55 AM 35.6 °F 27.1 °F 26.6 °F 70% 30.04 in 10.0 mi South 12.7 mph - N/A   Overcast
11:15 AM 35.6 °F 26.6 °F 28.4 °F 75% 30.03 in 10.0 mi SSE 13.8 mph 19.6 mph N/A   Overcast
11:35 AM 35.6 °F 27.5 °F 28.4 °F 75% 30.03 in 10.0 mi South 11.5 mph - N/A   Overcast
11:55 AM 37.4 °F 28.9 °F 26.6 °F 65% 30.01 in 10.0 mi South 13.8 mph - N/A   Overcast
12:15 PM 37.4 °F 29.3 °F 26.6 °F 65% 30.00 in 10.0 mi South 12.7 mph - N/A   Overcast
12:35 PM 37.4 °F 28.2 °F 28.4 °F 70% 29.99 in 10.0 mi South 16.1 mph - N/A   Overcast
12:55 PM 37.4 °F 28.2 °F 28.4 °F 70% 29.99 in 10.0 mi South 16.1 mph - N/A   Overcast
1:15 PM 41.0 °F 33.5 °F 30.2 °F 65% 29.98 in 10.0 mi SSW 13.8 mph - N/A   Mostly Cloudy
1:35 PM 42.8 °F 36.6 °F 30.2 °F 61% 29.98 in 10.0 mi SSW 11.5 mph 18.4 mph N/A   Mostly Cloudy
1:55 PM 44.6 °F 37.4 °F 30.2 °F 57% 29.97 in 10.0 mi SW 16.1 mph 21.9 mph N/A   Scattered Clouds
2:15 PM 44.6 °F 36.9 °F 32.0 °F 61% 29.96 in 10.0 mi SW 18.4 mph 21.9 mph N/A   Clear
2:35 PM 44.6 °F 37.2 °F 32.0 °F 61% 29.95 in 10.0 mi SW 17.3 mph - N/A   Scattered Clouds
2:55 PM 44.6 °F 36.4 °F 32.0 °F 61% 29.95 in 10.0 mi SW 20.7 mph 25.3 mph N/A   Clear
3:15 PM 44.6 °F 38.4 °F 30.2 °F 57% 29.95 in 10.0 mi SW 12.7 mph 20.7 mph N/A   Clear
3:35 PM 44.6 °F 37.4 °F 30.2 °F 57% 29.95 in 10.0 mi WSW 16.1 mph 19.6 mph N/A   Clear
3:55 PM 44.6 °F 36.9 °F 30.2 °F 57% 29.94 in 10.0 mi West 18.4 mph 21.9 mph N/A   Clear
4:15 PM 44.6 °F 36.9 °F 30.2 °F 57% 29.95 in 10.0 mi West 18.4 mph 26.5 mph N/A   Clear
4:35 PM 44.6 °F 37.4 °F 30.2 °F 57% 29.95 in 10.0 mi West 16.1 mph 21.9 mph N/A   Clear
4:55 PM 42.8 °F 34.3 °F 28.4 °F 57% 29.96 in 10.0 mi West 19.6 mph 23.0 mph N/A   Clear
5:15 PM 41.0 °F 33.1 °F 30.2 °F 65% 29.96 in 10.0 mi West 15.0 mph - N/A   Clear
5:35 PM 41.0 °F 33.1 °F 30.2 °F 65% 29.97 in 10.0 mi West 15.0 mph - N/A   Clear
6:15 PM 37.4 °F 28.9 °F 28.4 °F 70% 29.99 in 10.0 mi West 13.8 mph - N/A   Clear
6:35 PM 37.4 °F 29.8 °F 28.4 °F 70% 29.99 in 10.0 mi West 11.5 mph - N/A   Clear
6:55 PM 37.4 °F 28.2 °F 28.4 °F 70% 30.00 in 10.0 mi West 16.1 mph - N/A   Clear
7:15 PM 35.6 °F 26.2 °F 28.4 °F 75% 30.00 in 10.0 mi West 15.0 mph - N/A   Clear
7:35 PM 35.6 °F 27.5 °F 28.4 °F 75% 30.00 in 10.0 mi West 11.5 mph - N/A   Scattered Clouds
7:55 PM 35.6 °F 26.2 °F 28.4 °F 75% 30.00 in 10.0 mi West 15.0 mph - N/A   Mostly Cloudy
8:15 PM 35.6 °F 26.6 °F 28.4 °F 75% 30.01 in 10.0 mi West 13.8 mph 18.4 mph N/A   Mostly Cloudy
8:35 PM 35.6 °F 26.2 °F 28.4 °F 75% 30.01 in 10.0 mi West 15.0 mph - N/A   Mostly Cloudy
8:55 PM 35.6 °F 26.6 °F 28.4 °F 75% 30.00 in 10.0 mi West 13.8 mph - N/A   Mostly Cloudy
9:15 PM 35.6 °F 27.5 °F 28.4 °F 75% 30.01 in 10.0 mi West 11.5 mph - N/A   Scattered Clouds
9:35 PM 33.8 °F 24.8 °F 28.4 °F 81% 30.01 in 10.0 mi West 12.7 mph - N/A   Clear
9:55 PM 33.8 °F 24.8 °F 26.6 °F 75% 30.01 in 10.0 mi West 12.7 mph - N/A   Clear
10:15 PM 33.8 °F 24.8 °F 26.6 °F 75% 30.01 in 10.0 mi West 12.7 mph - N/A   Clear
10:35 PM 33.8 °F 25.3 °F 26.6 °F 75% 30.01 in 10.0 mi West 11.5 mph - N/A   Clear
11:15 PM 32.0 °F 23.6 °F 26.6 °F 80% 30.02 in 10.0 mi West 10.4 mph - N/A   Clear
11:35 PM 32.0 °F 23.0 °F 26.6 °F 80% 30.02 in 10.0 mi West 11.5 mph - N/A   Clear
11:55 PM 32.0 °F 23.6 °F 26.6 °F 80% 30.02 in 10.0 mi West 10.4 mph - N/A   Clear